Orbital Elements at Epoch 2459200.5 (2020-Dec-17.0) TDB
Reference: JPL 16 (heliocentric ecliptic J2000)
Element | Value | Uncertainty (1-sigma) | Units |
e | .2047314584853405 | 4.2355e-08 | |
a | 2.389381914383207 | 1.2941e-08 | au |
q | 1.900200270173038 | 9.9498e-08 | au |
i | 10.72602099360468 | 4.509e-06 | deg |
node | 52.16160459324139 | 2.4332e-05 | deg |
peri | 50.51477077794399 | 2.9167e-05 | deg |
M | 98.6134285980049 | 1.1453e-05 | deg |
tp | 2458830.960945807259 (2019-Dec-13.46094581) | 4.3612e-05 | TDB |
period | 1349.046082270362 3.69 | 1.0959e-05 3e-08 | d yr |
n | .2668552280987629 | 2.1679e-09 | deg/d |
Q | 2.878563558593376 | 1.559e-08 | au |
|
| | Orbit Determination Parameters
Additional Information
|